Terug naar catalogus

ORBCOMM FM 30

ActiefCommunicatieLEO
NORAD 25980·PAYLOAD·🇺🇸 United States

Gelanceerd Dec 4, 1999 vanaf Cape Canaveral Space Force Station

Loading…

Volgende Passages (komende 24 uur)

TLE

VersSource: Space-Track

Epoch: Sep 14, 2026, 13:13 UTC

1 25980U 99065A   26257.55115454  .00000479  00000-0  20261-3 0  9999
2 25980  45.0305  97.1857 0006868 121.2186 238.9336 14.38265968399848

Volg ORBCOMM FM 30 in realtime met AllMySat

Download on the App Store